Date,TemperatureHighF,TemperatureAvgF,TemperatureLowF,DewpointHighF,DewpointAvgF,DewpointLowF,HumidityHigh,HumidityAvg,HumidityLow,PressureMaxIn,PressureMinIn,WindSpeedMaxMPH,WindSpeedAvgMPH,GustSpeedMaxMPH,PrecipitationSumIn
2014-1-1,19.8,12.9,4.3,15.2,9.2,0.5,88,85,77,30.42,30.05,22,10,27,0.00
2014-1-2,14.2,5.0,0.0,7.5,0.6,-4.0,86,81,73,30.55,30.41,9,3,12,0.00
2014-1-3,38.7,23.0,1.7,26.3,14.4,-3.0,80,70,58,30.50,29.73,25,11,34,0.01
2014-1-4,36.2,24.5,14.3,28.9,18.5,11.6,90,78,61,30.16,29.72,26,10,29,0.00
2014-1-5,14.7,7.7,-4.0,12.0,-0.8,-12.0,89,68,53,30.63,30.10,23,12,32,0.00
2014-1-6,6.8,-2.2,-10.0,-6.0,-12.3,-18.0,77,61,52,30.66,30.47,18,6,22,0.00
2014-1-7,36.4,17.3,-1.0,22.4,9.4,-8.0,86,71,54,30.47,30.13,19,5,21,0.00
2014-1-8,24.0,20.3,13.8,17.5,14.5,11.1,90,78,68,30.40,30.24,16,8,18,0.00
2014-1-9,29.7,20.8,12.5,28.6,17.7,10.1,96,88,82,30.38,30.01,10,3,15,0.00
2014-1-10,37.1,33.8,29.7,36.5,33.0,28.9,98,97,96,30.01,29.55,12,4,15,0.02
2014-1-11,45.3,36.6,29.2,34.3,30.6,26.7,96,80,59,29.91,29.67,18,7,26,0.00
2014-1-12,58.8,43.9,34.9,35.5,30.9,27.7,80,62,38,29.83,29.48,24,9,34,0.00
2014-1-13,47.1,39.7,34.8,36.5,30.3,26.0,89,70,50,29.91,29.66,16,7,21,0.00
2014-1-14,45.2,36.9,22.2,33.4,20.2,6.8,70,53,24,30.25,29.75,32,9,34,0.00
2014-1-15,38.1,26.9,12.8,26.5,15.8,8.6,85,63,49,30.27,29.84,15,4,17,0.00
2014-1-16,47.3,38.2,22.7,30.1,21.3,8.6,73,51,35,30.09,29.81,32,13,42,0.00
2014-1-17,33.8,24.6,16.1,18.4,6.6,-1.0,64,47,26,30.23,29.98,20,7,31,0.00
2014-1-18,47.4,35.2,19.5,29.6,21.7,15.4,86,59,42,30.13,29.75,29,11,45,0.00
2014-1-19,59.5,40.4,18.7,27.8,23.7,15.0,89,57,28,30.11,29.80,26,8,33,0.00
2014-1-20,50.9,35.8,11.6,31.9,22.1,3.4,82,59,35,30.40,29.85,26,7,37,0.00
2014-1-21,21.5,12.1,1.3,3.2,-2.4,-6.0,72,53,33,30.52,30.16,17,6,25,0.00
2014-1-22,38.1,24.9,5.0,19.1,9.9,-6.0,77,53,31,30.60,30.14,23,8,31,0.00
2014-1-23,16.6,6.3,0.0,-2.0,-5.4,-9.0,70,58,37,30.90,30.60,16,5,21,0.00
2014-1-24,47.1,28.4,6.9,25.7,9.8,-3.0,63,46,35,30.68,29.82,24,12,32,0.00
2014-1-25,47.5,40.1,30.7,36.8,28.7,21.1,81,65,45,30.07,29.69,22,8,29,0.00
2014-1-26,58.4,41.9,15.6,33.4,24.5,-5.0,86,52,29,30.26,29.63,32,13,39,0.00
2014-1-27,15.1,8.4,0.7,-3.0,-5.7,-8.0,76,52,38,30.58,30.26,24,6,33,0.00
2014-1-28,22.9,10.3,-3.0,9.7,1.4,-8.0,82,67,48,30.57,30.35,16,4,19,0.00
2014-1-29,47.7,27.7,8.9,18.7,8.6,1.7,75,49,21,30.35,29.79,29,10,34,0.00
2014-1-30,43.6,34.4,25.7,25.3,16.6,9.2,62,49,34,30.03,29.58,30,13,40,0.00
2014-1-31,25.6,19.1,15.8,16.2,13.9,9.3,91,81,58,30.13,29.94,21,10,22,0.00
2014-2-1,27.1,21.4,17.7,22.3,17.2,11.4,92,84,74,30.31,29.91,15,7,22,0.00
2014-2-2,18.4,9.9,0.0,11.5,3.2,-5.0,88,74,59,30.46,30.30,12,2,18,0.06
2014-2-3,28.3,16.7,-1.0,19.3,8.9,-6.0,87,72,54,30.39,30.25,9,3,15,0.00
2014-2-4,24.7,19.6,9.3,19.2,16.7,6.6,93,89,78,30.30,30.08,26,12,31,0.00
2014-2-5,9.2,4.2,-1.0,6.6,-0.8,-7.0,89,79,70,30.75,30.30,25,9,30,0.00
2014-2-6,8.0,1.9,-6.0,-1.0,-4.9,-11.0,79,72,61,30.74,30.52,9,3,12,0.00
2014-2-7,12.9,8.9,3.1,7.9,1.4,-2.0,80,71,58,30.52,30.26,10,3,15,0.00
2014-2-8,27.2,20.9,12.9,22.6,17.1,7.9,89,85,80,30.26,30.09,11,4,18,0.00
2014-2-9,24.1,15.9,9.8,20.5,11.3,2.7,89,82,72,30.49,30.21,16,8,20,0.00
2014-2-10,10.4,8.6,6.4,3.0,0.7,-1.0,76,69,61,30.59,30.48,12,6,15,0.00
2014-2-11,21.0,11.0,0.0,6.9,2.1,-5.0,85,67,51,30.56,30.27,12,4,16,0.00
2014-2-12,30.2,22.7,12.6,23.6,16.1,3.6,88,76,66,30.27,29.98,13,5,18,0.00
2014-2-13,46.2,34.8,25.0,32.2,27.7,21.9,90,76,57,29.99,29.71,14,6,21,0.02
2014-2-14,38.6,28.5,14.1,32.9,23.2,11.7,92,81,68,30.13,29.58,19,6,26,0.00
2014-2-15,45.6,31.5,12.1,33.4,24.4,9.4,94,76,61,30.12,29.91,16,6,19,0.00
2014-2-16,37.8,31.9,25.1,30.8,27.7,22.8,93,84,73,30.18,29.85,16,5,17,0.00
2014-2-17,54.0,41.9,32.1,35.7,29.8,25.0,87,65,35,30.03,29.76,24,7,28,0.00
2014-2-18,65.6,51.1,40.8,36.1,30.2,26.6,63,46,29,29.96,29.69,22,10,29,0.00
2014-2-19,54.2,41.6,26.7,37.3,29.7,22.6,88,65,36,29.98,29.55,12,5,15,0.00
2014-2-20,44.8,38.0,32.8,38.7,32.5,17.7,97,82,52,29.85,29.34,26,11,43,0.74
2014-2-21,55.4,38.4,25.6,28.4,23.1,17.6,80,57,30,29.91,29.81,26,7,28,0.00
2014-2-22,50.1,35.6,24.4,35.7,26.7,19.9,88,71,50,30.14,29.89,22,7,24,0.00
2014-2-23,30.2,27.4,25.3,21.5,16.5,12.9,85,63,50,30.39,30.14,21,9,25,0.00
2014-2-24,36.7,27.7,22.1,18.6,16.2,13.9,82,63,40,30.38,30.17,12,5,15,0.00
2014-2-25,24.9,19.6,14.1,20.3,12.9,4.2,88,75,56,30.54,30.29,19,8,26,0.00
2014-2-26,30.1,18.7,3.0,19.3,8.9,0.0,87,66,46,30.53,30.03,19,7,23,0.00
2014-2-27,29.6,22.5,14.1,18.3,7.3,0.0,80,55,29,30.21,29.92,16,7,18,0.00
2014-2-28,50.6,33.3,19.9,34.6,19.5,5.8,84,58,43,30.09,29.80,23,8,27,0.00
2014-3-1,27.1,15.2,2.5,22.9,9.3,-1.0,87,77,64,30.49,30.09,24,15,29,0.00
2014-3-2,4.7,2.0,0.8,-1.0,-3.8,-9.0,85,75,58,30.65,30.46,26,12,28,0.00
2014-3-3,19.7,7.5,-8.0,6.0,-4.0,-13.0,77,59,40,30.67,30.29,11,4,16,0.00
2014-3-4,40.8,26.5,12.8,25.3,15.9,5.5,80,65,51,30.29,30.01,15,5,22,0.00
2014-3-5,34.6,29.6,25.2,27.6,25.3,22.6,90,84,72,30.32,30.08,16,6,20,0.00
2014-3-6,45.9,32.6,22.5,35.0,28.0,20.7,95,84,64,30.30,29.92,18,6,24,0.00
2014-3-7,56.4,41.3,29.9,40.5,33.8,24.1,88,76,51,30.10,29.84,23,10,31,0.00
2014-3-8,39.8,30.8,22.6,25.4,22.2,18.5,86,71,50,30.35,30.10,20,9,25,0.00
2014-3-9,64.6,43.9,20.8,33.8,27.3,17.5,90,57,27,30.34,29.93,24,10,36,0.00
2014-3-10,74.0,56.3,42.0,36.9,32.6,28.3,64,43,24,29.94,29.61,15,5,21,0.00
2014-3-11,68.7,50.9,36.1,48.4,37.0,30.8,90,61,39,30.01,29.44,29,12,45,0.04
2014-3-12,55.1,40.7,29.2,33.1,27.9,23.1,87,64,31,30.22,30.01,22,6,31,0.00
2014-3-13,69.3,50.2,29.8,32.1,25.4,18.8,76,43,16,30.11,29.76,22,7,24,0.00
2014-3-14,62.8,52.9,34.4,30.4,25.0,21.8,70,35,21,29.97,29.67,20,8,26,0.00
2014-3-15,74.7,54.5,38.7,43.3,31.0,22.6,70,43,21,30.02,29.73,27,8,36,0.00
2014-3-16,39.7,33.2,23.6,29.6,22.8,17.4,88,67,43,30.29,30.01,31,14,40,0.00
2014-3-17,57.1,38.6,21.7,30.1,23.5,15.9,83,58,30,30.11,29.55,21,9,28,0.00
2014-3-18,62.7,49.9,37.5,38.0,32.4,26.2,78,52,35,29.71,29.40,22,9,31,0.00
2014-3-19,54.6,41.7,33.4,31.5,27.7,24.8,88,61,33,30.15,29.71,22,8,28,0.00
2014-3-20,71.5,51.4,34.3,32.0,26.4,18.7,70,43,14,30.09,29.79,24,7,34,0.00
2014-3-21,62.8,51.1,38.9,36.1,29.6,23.7,68,45,25,30.18,29.73,21,7,27,0.00
2014-3-22,39.8,32.4,25.5,29.0,17.7,7.4,84,58,30,30.52,30.18,24,11,29,0.00
2014-3-23,41.6,29.6,16.5,21.2,15.2,11.7,89,59,30,30.57,30.32,13,3,19,0.00
2014-3-24,40.4,31.7,27.2,33.4,24.2,15.2,92,74,57,30.33,30.22,7,2,10,0.19
2014-3-25,41.7,31.9,24.4,22.1,16.8,9.0,83,57,27,30.45,30.21,17,4,23,0.00
2014-3-26,59.8,39.6,28.1,40.7,27.1,13.6,94,64,34,30.21,29.68,41,13,56,0.27
2014-3-27,71.3,50.2,37.0,55.4,42.5,30.1,94,76,43,29.84,29.28,32,16,47,0.01
2014-3-28,50.8,39.2,30.6,37.4,31.8,26.6,87,76,55,30.21,29.84,15,3,17,0.00
2014-3-29,57.9,42.3,26.9,35.1,31.2,24.8,93,68,39,30.34,30.15,10,4,16,0.00
2014-3-30,75.0,58.8,43.5,39.4,36.2,32.7,71,46,26,30.14,29.70,36,15,47,0.00
2014-3-31,77.7,60.8,33.2,49.3,36.5,18.2,59,42,17,29.97,29.48,32,19,43,0.00
2014-4-1,51.7,39.3,26.7,30.8,24.8,19.6,76,57,41,30.13,29.97,19,5,24,0.00
2014-4-2,46.6,43.6,39.9,45.6,39.3,29.9,98,86,53,30.00,29.64,16,8,23,0.32
2014-4-3,49.9,45.3,36.0,49.3,44.5,33.6,99,97,91,29.81,29.60,25,7,31,0.32
2014-4-4,47.9,38.9,29.0,34.0,31.4,25.9,91,75,54,30.17,29.81,21,9,31,0.00
2014-4-5,60.9,44.3,25.6,35.7,30.9,23.6,94,64,30,30.20,30.01,16,5,19,0.00
2014-4-6,60.5,51.6,45.6,41.4,37.5,32.2,78,59,45,30.04,29.82,8,2,14,0.00
2014-4-7,62.0,51.1,42.5,48.1,40.5,33.1,90,69,43,29.90,29.75,22,3,25,0.00
2014-4-8,59.4,49.0,35.3,38.9,31.5,22.1,79,54,24,30.10,29.90,21,7,26,0.00
2014-4-9,80.8,58.5,33.2,41.0,31.8,22.7,77,40,22,30.08,29.68,29,10,41,0.00
2014-4-10,66.7,59.6,41.9,43.6,36.6,27.1,70,43,27,29.98,29.61,25,10,30,0.00
2014-4-11,75.5,58.1,37.1,42.9,35.2,28.1,78,47,23,30.05,29.84,15,4,22,0.00
2014-4-12,83.4,67.9,55.7,62.1,56.4,43.1,92,69,47,29.84,29.44,26,11,34,1.12
2014-4-13,71.6,52.9,33.0,63.8,49.2,30.9,95,88,63,29.81,29.41,26,10,32,0.39
2014-4-14,43.8,35.3,28.6,31.2,25.8,21.0,94,70,45,30.21,29.82,25,10,32,0.00
2014-4-15,55.9,41.3,23.3,32.1,27.3,20.4,94,62,35,30.24,29.95,18,5,24,0.00
2014-4-16,69.2,53.4,39.2,41.1,32.4,29.5,73,47,26,30.09,29.75,38,16,55,0.00
2014-4-17,52.6,41.5,34.1,37.3,32.3,28.5,82,71,51,30.32,30.09,13,4,17,0.00
2014-4-18,67.9,50.8,29.1,46.6,39.1,27.5,97,68,42,30.32,30.11,16,4,23,0.00
2014-4-19,78.0,64.1,49.7,49.5,46.0,42.1,76,54,33,30.14,29.96,28,9,34,0.00
2014-4-20,80.2,67.6,58.7,59.6,53.9,46.6,91,63,46,30.02,29.91,23,10,29,0.01
2014-4-21,75.4,64.9,54.5,60.4,51.3,32.0,92,64,32,30.05,29.90,17,5,28,0.00
2014-4-22,69.3,56.7,42.1,46.2,37.4,32.5,76,51,29,30.14,29.93,12,4,16,0.00
2014-4-23,76.3,62.3,50.6,52.6,44.8,37.8,79,54,38,29.95,29.55,24,9,27,0.05
2014-4-24,71.1,58.9,44.0,58.2,51.8,41.3,96,79,53,29.82,29.47,27,7,34,0.68
2014-4-25,78.7,63.1,45.5,49.9,44.3,40.4,91,54,29,29.89,29.72,25,7,25,0.00
2014-4-26,78.2,68.2,56.0,60.4,51.4,42.7,66,56,39,29.75,29.45,28,11,39,0.00
2014-4-27,75.4,67.3,56.8,65.0,60.0,45.6,94,78,47,29.45,29.19,27,10,32,0.28
2014-4-28,62.5,52.7,46.5,59.5,46.3,41.7,94,79,66,29.39,29.20,20,8,28,0.00
2014-4-29,48.7,45.2,42.4,47.3,41.6,37.2,96,88,79,29.89,29.37,19,8,24,0.05
2014-4-30,54.3,45.8,38.2,40.8,36.6,32.5,91,72,46,30.00,29.88,23,9,31,0.00
2014-5-1,55.0,47.5,39.6,42.6,38.6,35.7,89,71,59,30.02,29.93,25,8,26,0.00
2014-5-2,71.9,56.0,38.9,42.7,37.7,33.7,89,56,26,30.01,29.77,18,6,27,0.00
2014-5-3,75.4,61.5,43.0,50.9,44.7,37.6,88,57,35,29.92,29.82,9,2,11,0.00
2014-5-4,83.3,66.5,49.1,57.8,50.3,43.5,82,59,34,29.87,29.61,15,5,20,0.00
2014-5-5,77.7,63.0,49.4,58.1,51.2,45.2,89,67,45,29.71,29.63,16,6,18,0.00
2014-5-6,86.5,71.6,54.7,64.9,58.1,48.4,81,64,47,29.69,29.42,19,7,24,0.00
2014-5-7,91.2,78.9,68.6,66.7,64.1,59.2,81,63,35,29.64,29.47,30,13,36,0.00
2014-5-8,81.1,71.6,57.5,65.9,59.5,43.6,84,67,43,29.74,29.56,25,9,29,0.01
2014-5-9,71.4,58.3,45.7,49.9,44.3,39.5,82,62,38,29.89,29.74,12,4,16,0.00
2014-5-10,86.0,69.1,52.7,64.9,55.3,47.4,87,63,37,29.83,29.61,21,6,30,0.00
2014-5-11,85.0,74.4,58.4,68.7,64.1,56.2,94,72,53,29.71,29.48,29,9,34,0.00
2014-5-12,75.9,59.1,47.2,67.8,55.9,42.5,96,90,74,30.05,29.51,19,7,28,0.70
2014-5-13,61.5,52.5,45.5,43.7,40.7,37.7,85,66,44,30.27,30.05,17,6,22,0.00
2014-5-14,64.8,52.8,40.7,44.3,39.1,33.4,91,63,32,30.29,30.08,11,2,18,0.00
2014-5-15,58.0,49.9,37.5,41.9,34.0,29.5,85,56,35,30.19,30.10,17,5,25,0.00
2014-5-16,58.2,45.3,30.3,42.2,34.6,27.9,93,69,40,30.16,30.08,9,2,14,0.00
2014-5-17,61.6,50.1,32.3,45.4,39.4,31.2,98,71,42,30.19,30.12,8,1,10,0.00
2014-5-18,71.0,57.3,36.6,52.3,45.3,34.1,95,67,46,30.16,29.89,22,5,24,0.00
2014-5-19,83.3,70.6,59.8,66.5,60.3,52.5,89,71,52,29.91,29.59,29,11,39,0.00
2014-5-20,87.1,75.8,61.7,68.5,64.4,59.1,93,69,49,29.74,29.64,21,6,28,0.00
2014-5-21,85.0,75.7,61.6,69.9,65.3,58.9,93,71,57,29.96,29.71,11,3,19,0.00
2014-5-22,74.0,67.9,58.4,64.0,59.2,53.3,92,74,62,30.11,29.95,21,6,29,0.00
2014-5-23,77.4,66.9,56.2,63.8,59.1,53.8,94,78,57,30.11,30.00,14,4,15,0.00
2014-5-24,69.7,65.3,59.7,67.8,62.8,57.0,97,92,76,30.05,29.93,9,3,12,1.02
2014-5-25,83.5,72.3,64.6,72.2,67.1,63.0,98,85,63,29.95,29.82,38,4,38,0.23
2014-5-26,80.7,70.6,64.1,70.5,66.2,63.0,98,87,63,29.95,29.86,12,3,15,0.00
2014-5-27,81.5,71.3,60.5,68.5,64.1,59.1,96,79,57,29.94,29.84,10,2,14,0.00
2014-5-28,87.2,74.7,66.0,73.0,67.2,63.4,95,79,48,29.92,29.84,22,1,31,0.25
2014-5-29,85.2,74.2,61.1,70.8,66.0,60.2,98,78,49,29.93,29.84,10,2,11,0.00
2014-5-30,84.7,75.2,63.5,70.7,66.8,62.6,98,77,55,29.98,29.89,11,3,14,0.00
2014-5-31,85.4,74.6,64.2,70.4,67.0,63.0,98,78,57,30.00,29.84,10,2,15,0.00
2014-6-1,84.2,73.4,62.5,71.7,67.4,61.3,97,83,63,29.89,29.65,17,6,25,0.89
2014-6-2,81.3,70.8,62.3,70.4,65.5,61.4,98,85,59,29.93,29.68,16,3,20,0.00
2014-6-3,87.2,77.1,65.0,76.0,70.3,63.8,98,81,63,29.92,29.60,21,5,35,0.00
2014-6-4,79.7,70.6,63.5,72.2,66.0,61.4,97,86,74,29.79,29.65,25,6,36,0.04
2014-6-5,78.8,71.0,65.6,67.5,65.4,62.2,98,84,62,29.93,29.38,37,3,41,0.24
2014-6-6,80.5,71.7,59.5,70.0,65.6,58.6,99,83,60,29.90,29.77,13,3,16,0.00
2014-6-7,75.0,69.0,63.7,68.4,64.6,60.7,97,87,68,29.96,29.73,14,4,24,0.62
2014-6-8,74.0,65.1,57.3,65.5,60.9,56.0,96,87,69,30.01,29.88,11,3,13,0.00
2014-6-9,70.4,64.2,58.9,64.4,61.9,57.7,98,92,78,29.88,29.69,21,6,26,1.43
2014-6-10,74.3,65.9,57.8,64.7,59.6,55.6,98,81,59,29.82,29.74,18,6,24,0.00
2014-6-11,79.6,67.4,52.7,64.9,59.2,51.5,97,77,49,29.83,29.70,11,2,15,0.00
2014-6-12,74.2,67.4,58.1,64.5,58.1,50.9,96,74,49,30.00,29.75,15,4,24,0.13
2014-6-13,75.5,64.7,49.2,55.9,51.5,45.8,93,64,44,30.08,29.86,12,3,16,0.00
2014-6-14,82.9,72.7,59.8,72.2,64.3,54.3,85,75,68,29.89,29.51,26,11,35,0.00
2014-6-15,81.0,71.5,61.9,70.6,65.3,60.4,96,82,60,29.89,29.51,24,6,34,0.48
2014-6-16,86.6,77.8,67.2,76.4,71.3,66.0,98,81,67,29.90,29.62,24,9,33,0.00
2014-6-17,87.0,80.9,75.9,77.0,73.1,69.6,83,78,69,29.74,29.64,25,12,32,0.00
2014-6-18,88.3,81.2,74.9,78.5,73.9,70.9,88,79,68,29.78,29.68,26,10,32,0.00
2014-6-19,84.3,77.1,69.0,76.0,71.6,65.9,93,84,73,29.92,29.73,19,7,28,0.16
2014-6-20,89.3,78.2,64.8,78.6,71.2,63.9,99,81,61,29.97,29.83,11,3,15,0.00
2014-6-21,88.1,78.1,66.5,74.5,69.0,61.9,90,75,55,29.97,29.75,17,4,25,0.00
2014-6-22,88.5,76.4,65.0,75.0,69.5,62.7,98,81,57,29.80,29.64,12,4,25,0.96
2014-6-23,82.5,70.9,65.4,71.0,67.2,63.1,98,89,62,29.93,29.78,11,2,20,0.18
2014-6-24,83.1,72.5,60.3,71.6,65.3,59.1,97,80,53,29.97,29.90,8,1,10,0.00
2014-6-25,85.4,74.4,62.9,71.3,66.9,61.7,98,79,57,29.98,29.86,11,2,14,0.00
2014-6-26,84.8,76.3,69.0,74.5,70.4,66.9,95,83,63,29.91,29.73,18,5,25,0.08
2014-6-27,81.0,75.0,72.1,73.3,71.0,69.1,95,88,72,29.79,29.66,26,8,34,0.09
2014-6-28,79.2,74.1,67.9,71.4,68.6,64.5,95,84,69,29.82,29.62,20,6,28,0.02
2014-6-29,86.7,75.7,67.3,79.8,72.5,66.1,97,90,75,29.84,29.70,16,5,25,0.55
2014-6-30,90.4,80.6,66.9,80.9,74.0,61.5,94,81,68,29.77,29.55,25,8,31,0.00
2014-7-1,83.2,72.8,63.8,64.1,61.0,53.3,93,69,45,30.00,29.76,14,4,22,0.00
2014-7-2,69.1,62.5,53.2,56.5,53.8,50.7,93,75,57,30.15,30.00,18,5,25,0.00
2014-7-3,79.6,66.3,51.2,60.4,54.6,48.7,94,69,45,30.22,30.12,4,1,9,0.00
2014-7-4,81.5,71.1,57.0,65.7,60.8,54.5,94,72,54,30.21,30.06,15,4,20,0.00
2014-7-5,86.9,76.9,68.2,77.5,70.5,62.4,88,81,69,30.09,29.84,18,6,28,0.00
2014-7-6,92.6,82.2,74.1,78.9,74.1,71.0,91,78,60,29.85,29.72,17,6,21,0.00
2014-7-7,92.5,82.3,69.5,78.0,72.3,62.7,94,73,52,29.85,29.55,19,3,28,0.68
2014-7-8,82.0,73.3,63.5,66.5,63.4,60.0,98,74,49,29.97,29.78,15,4,19,0.02
2014-7-9,85.7,72.8,59.2,67.6,62.6,57.3,95,73,45,30.03,29.91,8,1,12,0.02
2014-7-10,83.9,75.1,67.3,70.7,66.2,63.0,91,75,54,30.00,29.91,16,5,20,0.00
2014-7-11,90.5,79.0,68.6,78.4,70.7,64.9,91,77,59,29.97,29.87,14,5,19,0.00
2014-7-12,92.9,83.0,73.3,76.0,70.8,66.7,81,68,52,29.95,29.82,16,6,19,0.00
2014-7-13,86.2,77.7,69.7,74.7,70.8,67.7,98,81,58,29.96,29.87,17,2,22,0.79
2014-7-14,78.3,69.6,58.1,69.6,62.3,52.6,96,80,47,30.10,29.87,14,4,22,0.26
2014-7-15,72.7,63.4,53.3,57.8,53.6,49.6,93,72,52,30.14,30.01,13,3,17,0.00
2014-7-16,77.0,64.9,50.2,60.4,54.7,49.1,98,73,45,30.07,29.97,10,1,10,0.00
2014-7-17,76.8,67.8,58.0,62.8,58.9,55.2,93,75,54,30.04,29.99,7,1,11,0.00
2014-7-18,75.9,68.2,59.3,65.1,61.3,57.6,97,80,59,30.05,29.94,8,1,12,0.00
2014-7-19,81.4,69.7,58.1,66.6,61.9,56.6,96,78,57,30.00,29.88,12,3,18,0.00
2014-7-20,87.1,75.2,62.4,73.5,67.4,60.4,94,78,62,29.93,29.78,16,6,25,0.00
2014-7-21,93.8,81.9,71.5,80.2,73.6,68.8,92,77,56,29.87,29.80,20,8,24,0.00
2014-7-22,100.1,85.4,75.2,80.2,75.7,70.4,95,75,40,30.00,29.85,14,5,18,0.00
2014-7-23,84.6,77.2,68.8,73.8,68.0,65.0,92,75,53,30.12,30.00,15,5,22,0.00
2014-7-24,84.6,74.4,64.1,67.5,64.1,61.2,92,72,50,30.08,29.86,16,4,19,0.00
2014-7-25,98.9,84.8,72.9,77.3,70.9,60.7,87,65,41,29.86,29.64,21,8,28,0.00
2014-7-26,95.9,83.6,75.8,79.3,73.4,69.4,88,73,50,29.79,29.67,13,3,18,0.01
2014-7-27,86.6,79.0,67.9,75.7,65.0,53.7,96,66,34,30.08,29.79,16,4,22,0.00
2014-7-28,79.9,69.4,58.9,61.4,58.5,55.9,91,70,47,30.19,30.08,13,3,17,0.00
2014-7-29,82.8,69.3,56.0,63.8,58.5,53.9,95,71,43,30.15,30.02,11,2,13,0.00
2014-7-30,78.9,68.6,58.5,61.2,58.4,55.1,92,73,45,30.09,30.02,13,2,14,0.00
2014-7-31,85.3,69.8,54.5,62.5,56.8,52.3,97,68,37,30.08,29.96,9,1,9,0.00
2014-8-1,87.3,74.9,64.6,66.7,63.3,58.3,92,69,45,30.02,29.94,12,3,19,0.01
2014-8-2,87.4,76.7,65.2,70.6,66.1,63.7,97,72,48,30.08,29.97,11,2,14,0.16
2014-8-3,88.3,75.9,64.8,70.3,65.7,61.8,95,72,51,30.12,29.92,19,5,29,0.07
2014-8-4,94.9,80.3,68.6,74.6,67.4,61.6,93,68,35,29.97,29.87,13,4,21,0.00
2014-8-5,91.5,79.6,67.5,74.8,71.3,66.6,99,78,49,29.99,29.88,10,2,14,0.00
2014-8-6,90.2,75.5,67.4,74.6,69.0,64.1,97,82,53,29.91,29.73,19,4,24,0.57
2014-8-7,83.1,73.1,67.7,72.5,69.3,67.1,99,89,68,29.87,29.80,10,2,10,0.00
2014-8-8,80.6,72.6,67.2,72.3,68.9,66.3,98,89,74,29.95,29.87,10,2,13,0.00
2014-8-9,82.7,73.3,66.7,73.9,69.5,65.9,98,89,70,29.99,29.89,13,3,15,0.03
2014-8-10,79.3,72.5,67.5,72.9,69.4,66.4,99,91,72,30.00,29.89,16,2,28,1.70
2014-8-11,79.1,71.9,64.7,69.5,62.8,56.3,97,76,48,30.06,29.97,17,4,20,0.00
2014-8-12,78.4,68.0,56.2,59.7,56.5,53.5,94,69,45,30.11,30.02,15,4,19,0.00
2014-8-13,80.1,67.6,52.7,63.0,57.5,51.5,98,74,43,30.13,30.01,7,1,10,0.00
2014-8-14,83.6,71.1,57.3,68.4,62.7,56.0,98,77,52,30.05,29.90,12,3,15,0.00
2014-8-15,80.7,73.3,67.4,73.1,68.5,62.3,97,85,70,29.92,29.73,11,2,15,0.09
2014-8-16,79.0,73.7,69.2,71.1,69.6,67.0,98,88,74,29.85,29.72,11,2,15,0.00
2014-8-17,84.1,73.1,62.0,72.8,68.1,61.4,99,86,65,29.94,29.81,8,1,10,0.00
2014-8-18,89.3,77.4,66.3,72.5,68.7,65.2,97,77,49,29.95,29.70,12,1,18,0.00
2014-8-19,91.0,80.6,69.3,76.7,71.9,65.4,94,76,55,29.76,29.65,13,2,25,0.00
2014-8-20,92.9,83.2,73.3,74.9,71.1,68.4,87,68,50,29.77,29.69,18,5,23,0.00
2014-8-21,96.9,86.1,77.1,75.4,71.7,69.1,80,64,44,29.79,29.71,21,8,26,0.00
2014-8-22,93.6,81.9,74.4,80.0,74.3,72.4,96,79,54,29.87,29.76,14,2,18,0.14
2014-8-23,97.5,84.7,73.7,75.3,68.3,61.2,95,62,32,29.82,29.69,18,4,29,0.00
2014-8-24,97.8,86.7,76.4,70.9,67.3,64.8,69,54,39,29.81,29.70,18,6,26,0.00
2014-8-25,92.9,84.7,77.4,75.5,71.5,66.8,88,66,52,29.90,29.79,21,5,27,0.00
2014-8-26,87.5,75.9,67.7,73.6,70.0,63.9,94,83,60,30.09,29.88,21,3,26,0.09
2014-8-27,83.2,75.9,69.0,72.6,71.3,68.1,98,86,67,30.07,29.94,18,3,18,0.38
2014-8-28,88.9,78.9,74.0,75.8,72.5,68.6,94,82,55,29.93,29.74,14,1,17,0.00
2014-8-29,87.1,75.7,68.2,71.2,66.7,61.6,95,75,50,29.80,29.69,11,3,20,0.02
2014-8-30,87.6,76.2,66.3,70.9,66.9,63.8,97,75,49,29.88,29.78,7,0,10,0.00
2014-8-31,94.2,78.1,65.0,72.9,67.2,62.7,97,72,43,29.81,29.55,31,7,50,1.00
2014-9-1,80.9,71.7,64.7,70.3,66.7,63.2,97,85,67,29.83,29.62,16,4,26,0.23
2014-9-2,85.3,72.4,60.7,71.9,65.6,59.8,98,81,53,29.95,29.82,8,0,12,0.00
2014-9-3,86.9,77.5,69.1,77.0,70.7,65.7,96,81,62,29.89,29.68,23,8,30,0.50
2014-9-4,92.9,83.6,75.0,73.6,70.4,68.4,82,66,47,29.83,29.71,26,10,31,0.00
2014-9-5,80.2,66.5,60.8,69.2,60.8,56.4,93,82,68,30.20,29.83,15,6,24,0.06
2014-9-6,72.5,62.6,53.3,58.4,54.2,50.3,97,77,47,30.27,30.16,12,2,17,0.00
2014-9-7,77.4,62.9,47.7,59.9,54.2,46.8,98,76,48,30.20,30.01,9,1,12,0.00
2014-9-8,85.6,71.5,56.3,70.9,63.4,53.3,91,77,58,30.03,29.77,18,4,23,0.00
2014-9-9,91.9,80.7,72.5,75.5,71.1,68.4,91,74,54,29.80,29.46,24,8,35,0.20
2014-9-10,74.8,66.3,59.0,72.3,63.5,54.8,98,91,83,30.01,29.50,15,4,19,0.44
2014-9-11,60.3,55.8,51.6,54.7,51.4,49.5,94,86,74,30.27,30.01,16,7,20,0.00
2014-9-12,53.3,49.2,41.4,50.0,46.4,40.0,96,90,78,30.42,30.24,16,6,21,0.07
2014-9-13,63.2,50.0,34.9,48.5,42.4,34.1,99,78,48,30.42,30.22,13,1,16,0.00
2014-9-14,72.6,62.3,50.8,58.6,52.9,47.1,88,72,54,30.25,30.00,11,2,18,0.00
2014-9-15,68.6,62.5,50.4,63.9,58.0,47.5,96,86,65,30.23,29.95,19,4,21,0.00
2014-9-16,72.0,58.4,42.2,57.9,50.7,41.3,97,78,52,30.23,29.97,7,1,11,0.00
2014-9-17,77.4,67.1,61.8,68.4,63.6,58.0,98,89,72,29.97,29.83,10,1,12,0.00
2014-9-18,67.0,63.4,60.8,63.4,61.7,59.9,99,94,87,29.98,29.88,10,3,14,0.00
2014-9-19,81.8,69.0,60.8,72.6,65.7,60.2,99,90,71,29.97,29.82,14,4,21,0.00
2014-9-20,85.5,72.5,67.7,73.1,68.8,66.5,98,89,62,29.94,29.83,15,4,19,0.48
2014-9-21,73.9,65.7,52.7,66.4,53.9,48.5,95,68,42,30.22,29.94,14,3,21,0.00
2014-9-22,75.0,60.1,45.1,55.9,51.1,44.0,98,75,45,30.30,30.16,6,0,14,0.00
2014-9-23,71.9,62.9,56.9,59.7,55.5,52.4,91,78,56,30.20,30.05,17,3,24,0.11
2014-9-24,74.1,65.4,58.1,62.9,58.4,54.0,95,79,65,30.15,30.07,15,3,19,0.09
2014-9-25,84.8,71.0,60.7,65.9,60.0,55.6,87,70,49,30.15,30.03,8,2,12,0.00
2014-9-26,83.0,71.0,61.3,63.9,59.7,56.5,86,69,45,30.10,30.01,15,2,23,0.00
2014-9-27,80.8,69.1,56.7,63.7,59.5,55.1,97,74,48,30.09,29.99,11,2,16,0.00
2014-9-28,83.8,67.2,52.1,64.4,57.5,50.9,98,75,41,30.10,30.00,9,1,15,0.00
2014-9-29,84.7,68.4,53.4,66.8,58.8,51.8,97,75,45,30.05,29.88,9,1,11,0.00
2014-9-30,82.6,72.4,62.1,65.3,61.1,58.4,89,69,48,29.91,29.66,18,4,24,0.01
2014-10-1,80.8,69.8,61.3,70.1,65.8,60.1,98,88,67,29.70,29.61,16,3,28,2.93
2014-10-2,66.1,61.2,52.6,63.8,59.4,50.7,99,94,84,29.87,29.64,15,3,25,0.04
2014-10-3,55.7,50.2,42.7,50.9,39.1,31.9,95,68,41,30.19,29.85,27,8,32,0.05
2014-10-4,60.6,47.3,36.0,41.3,33.8,29.0,84,62,34,30.11,29.84,19,4,29,0.00
2014-10-5,72.7,59.3,46.8,52.2,45.4,38.0,86,62,38,29.85,29.70,18,5,24,0.00
2014-10-6,73.7,61.1,50.5,51.6,48.0,43.4,91,65,36,29.78,29.64,17,4,21,0.00
2014-10-7,77.7,65.2,52.2,54.3,50.8,48.0,91,62,37,29.98,29.65,12,3,18,0.00
2014-10-8,73.0,59.4,46.8,53.8,47.3,43.5,91,67,40,30.10,29.93,10,3,13,0.03
2014-10-9,61.0,56.3,54.0,59.1,54.9,52.9,99,95,82,30.07,29.89,18,6,23,0.98
2014-10-10,53.9,49.4,43.5,53.3,44.0,38.9,98,82,67,30.19,30.04,19,6,20,0.06
2014-10-11,62.7,48.2,35.6,44.9,40.1,33.5,95,76,47,30.24,30.01,7,1,10,0.00
2014-10-12,57.3,52.4,43.6,54.0,49.9,40.7,96,91,86,30.01,29.69,11,2,16,0.00
2014-10-13,55.9,54.0,52.9,53.7,51.7,46.9,98,92,72,29.74,29.59,21,7,29,0.37
2014-10-14,65.9,56.9,49.4,46.7,42.6,39.0,77,60,38,29.97,29.70,24,10,37,0.00
2014-10-15,70.9,54.6,41.8,47.7,40.7,36.9,84,63,31,30.07,29.88,10,3,13,0.00
2014-10-16,76.0,60.2,45.9,55.0,47.3,40.4,86,65,44,29.88,29.70,12,2,19,0.00
2014-10-17,67.3,57.0,48.5,49.4,44.5,39.5,82,64,47,30.11,29.82,16,4,19,0.00
2014-10-18,62.2,48.8,39.3,46.9,42.2,37.4,94,79,54,30.26,30.11,14,2,16,0.00
2014-10-19,72.0,55.0,38.2,51.6,46.0,36.6,96,75,44,30.17,29.96,16,3,20,0.00
2014-10-20,74.2,59.6,44.6,53.4,48.7,42.1,91,71,36,30.06,29.97,11,2,15,0.00
2014-10-21,75.3,56.6,37.9,54.1,44.0,36.3,97,68,31,30.12,30.01,9,1,10,0.00
2014-10-22,77.3,63.9,51.7,61.0,53.9,45.8,91,71,53,30.12,29.98,15,4,23,0.09
2014-10-23,73.7,63.7,58.7,62.8,59.6,57.0,97,88,56,30.05,29.97,14,4,15,0.68
2014-10-24,79.7,64.8,56.4,66.7,60.5,55.8,99,87,62,30.02,29.86,14,5,20,0.00
2014-10-25,79.4,64.0,48.8,64.0,56.7,47.9,99,80,49,30.06,29.94,8,1,9,0.00
2014-10-26,86.8,70.4,56.3,62.9,56.4,52.2,93,65,37,29.94,29.52,27,7,34,0.00
2014-10-27,71.3,64.5,53.8,59.5,53.9,43.6,86,69,56,29.94,29.49,18,6,25,0.00
2014-10-28,62.8,52.9,42.3,43.9,37.5,33.6,78,58,35,30.15,29.93,11,3,15,0.00
2014-10-29,61.8,47.6,31.1,40.0,35.2,28.8,93,65,38,30.26,30.05,9,1,12,0.00
2014-10-30,66.3,55.3,45.6,44.0,41.2,38.4,81,61,39,30.25,29.96,17,6,27,0.00
2014-10-31,47.6,37.6,25.6,41.7,25.1,18.1,85,63,36,30.52,30.25,25,8,30,0.00
2014-11-1,52.4,38.2,21.0,27.4,23.2,18.1,90,60,30,30.48,30.21,17,6,22,0.00
2014-11-2,63.2,52.2,44.8,42.9,35.6,25.7,68,53,44,30.21,29.93,31,12,39,0.00
2014-11-3,68.8,57.2,47.8,57.4,48.1,40.9,88,72,60,30.05,29.83,24,13,37,0.00
2014-11-4,53.0,46.5,42.0,41.0,38.6,36.3,86,75,55,30.22,30.05,13,4,21,0.00
2014-11-5,68.7,53.4,39.6,39.6,36.1,31.4,81,55,27,30.18,30.02,22,6,29,0.00
2014-11-6,51.7,43.2,32.1,35.8,31.2,27.3,84,64,45,30.40,30.18,16,5,23,0.00
2014-11-7,65.1,50.3,35.2,42.8,35.3,28.6,80,59,35,30.28,29.77,33,8,38,0.07
2014-11-8,56.4,44.7,31.8,42.5,32.2,27.6,85,63,41,30.22,29.96,20,6,27,0.00
2014-11-9,68.0,52.4,38.1,43.5,37.2,29.6,74,57,40,30.02,29.57,17,6,20,0.00
2014-11-10,70.2,49.0,29.8,49.2,39.3,22.8,82,70,46,29.92,29.33,24,9,33,0.00
2014-11-11,31.0,25.2,20.4,22.7,15.2,11.0,86,66,46,30.46,29.91,27,10,31,0.00
2014-11-12,25.6,19.9,16.1,10.9,7.7,3.5,74,60,40,30.61,30.46,17,7,22,0.00
2014-11-13,31.2,19.2,10.0,15.1,10.3,5.9,86,69,44,30.64,30.53,14,5,20,0.00
2014-11-14,32.6,20.5,9.1,14.4,11.0,5.2,87,68,41,30.53,30.34,9,2,12,0.00
2014-11-15,28.7,26.2,19.6,25.8,21.4,12.3,93,82,65,30.34,30.14,10,2,12,0.00
2014-11-16,27.8,18.7,11.9,26.0,11.6,6.9,93,74,53,30.27,30.13,16,7,21,0.00
2014-11-17,22.2,16.8,8.8,13.5,7.1,1.0,76,66,50,30.38,30.20,21,9,33,0.00
2014-11-18,40.2,24.4,8.5,26.8,12.1,1.2,84,62,34,30.37,29.93,18,7,22,0.00
2014-11-19,38.1,31.6,20.6,27.5,20.8,14.7,83,65,44,30.22,29.94,17,4,23,0.00
2014-11-20,38.1,24.8,12.2,22.3,17.2,9.5,92,74,52,30.30,30.21,9,2,11,0.00
2014-11-21,39.3,30.5,18.7,36.8,26.9,15.3,97,87,62,30.30,30.05,9,2,11,0.01
2014-11-22,57.2,49.7,37.6,56.8,48.8,36.8,99,97,92,30.05,29.61,20,7,25,0.00
2014-11-23,55.4,48.9,38.2,54.2,46.1,29.6,98,91,68,29.61,29.35,22,8,31,0.06
2014-11-24,40.2,33.3,26.1,29.5,22.1,12.1,79,64,48,30.14,29.53,25,11,29,0.00
2014-11-25,47.1,33.1,18.6,27.2,19.6,11.1,75,58,44,30.23,29.94,14,5,19,0.00
2014-11-26,42.1,34.4,24.8,35.0,27.1,19.8,83,75,57,30.47,29.90,27,11,36,0.00
2014-11-27,39.3,29.2,21.4,23.7,21.1,18.1,88,73,49,30.58,30.20,12,3,14,0.00
2014-11-28,64.3,46.5,30.9,40.8,32.0,23.6,77,59,36,30.19,29.68,19,9,23,0.00
2014-11-29,65.5,53.5,44.6,46.7,41.6,36.3,92,66,43,29.68,29.52,15,5,20,0.00
2014-11-30,49.5,26.5,18.5,40.6,16.4,5.7,89,66,47,30.54,29.54,24,10,29,0.00
2014-12-1,25.7,18.7,14.8,6.7,3.4,0.9,66,51,36,30.77,30.50,18,8,24,0.00
2014-12-2,43.4,27.3,11.9,15.4,11.3,5.1,81,54,30,30.50,30.06,20,6,27,0.00
2014-12-3,41.0,33.9,26.3,20.6,16.7,14.2,63,50,34,30.41,30.17,18,5,21,0.00
2014-12-4,42.2,35.8,28.6,36.9,28.9,18.2,95,76,60,30.26,30.08,9,2,11,0.00
2014-12-5,46.6,40.2,36.9,45.7,39.2,35.8,98,97,94,30.33,30.05,10,2,12,0.25
2014-12-6,40.8,35.1,32.7,40.2,34.4,32.1,98,97,96,30.58,30.33,13,3,17,0.00
2014-12-7,42.0,36.8,32.5,41.7,36.3,31.9,99,98,98,30.52,30.21,12,3,17,0.01
2014-12-8,52.8,43.2,33.4,41.9,36.1,28.5,99,78,51,30.34,30.19,18,5,25,0.00
2014-12-9,33.2,28.3,22.7,28.3,24.7,20.0,94,86,80,30.48,30.33,13,2,16,0.00
2014-12-10,32.3,30.4,25.3,31.4,28.9,23.5,97,94,91,30.38,30.24,8,2,10,0.00
2014-12-11,38.3,35.3,32.0,37.0,34.4,31.2,98,97,93,30.29,30.22,4,0,9,0.00
2014-12-12,54.8,45.2,37.6,48.2,43.1,37.0,99,93,78,30.31,30.19,11,3,16,0.00
2014-12-13,54.0,50.6,47.7,53.1,49.5,46.2,98,96,94,30.19,29.94,14,6,19,0.00
2014-12-14,58.4,55.1,48.2,55.1,53.3,47.1,98,94,86,29.94,29.65,18,6,22,0.40
2014-12-15,51.0,41.4,29.3,50.1,39.6,24.7,98,93,83,30.01,29.50,32,10,39,0.18
2014-12-16,29.4,27.3,24.6,24.7,22.6,20.6,86,82,78,30.40,30.01,25,6,29,0.00
2014-12-17,28.4,25.2,21.1,25.1,20.6,16.8,94,82,76,30.40,30.26,9,1,13,0.00
2014-12-18,31.5,28.7,26.3,29.4,27.4,24.9,97,95,92,30.29,30.22,4,0,6,0.00
2014-12-19,31.7,29.3,27.5,29.3,27.8,26.5,97,94,88,30.32,30.21,7,1,10,0.00
2014-12-20,45.9,37.0,30.8,41.5,34.5,29.2,95,91,83,30.22,30.07,10,3,17,0.25
2014-12-21,43.7,40.2,35.3,42.1,38.6,33.7,96,94,91,30.07,29.69,16,6,23,0.00
2014-12-22,45.6,42.4,35.6,44.6,40.8,33.0,98,94,88,29.69,29.43,16,4,20,0.23
2014-12-23,37.1,35.5,32.1,34.7,32.9,29.7,95,91,86,29.91,29.56,15,5,21,0.00
2014-12-24,34.6,32.6,28.8,33.2,30.2,27.1,95,91,86,29.92,29.77,15,6,23,0.01
2014-12-25,54.0,41.1,28.8,33.3,30.3,26.8,94,68,44,29.78,29.61,31,8,39,0.00
2014-12-26,44.3,36.1,31.2,33.1,31.9,28.5,96,86,61,30.06,29.75,12,3,15,0.00
2014-12-27,32.6,26.9,18.5,31.5,22.0,15.2,96,82,64,30.32,30.07,18,6,25,0.00
2014-12-28,41.6,27.8,15.7,25.6,19.8,13.2,91,74,46,30.29,30.16,10,2,13,0.00
2014-12-29,39.1,27.0,15.2,27.9,21.8,10.4,95,81,61,30.63,30.21,22,6,27,0.00
2014-12-30,15.1,10.4,4.8,10.6,1.2,-3.0,82,66,47,30.88,30.63,21,8,24,0.00
2014-12-31,21.9,11.0,1.6,9.6,2.8,-4.0,82,69,52,30.85,30.39,14,4,20,0.00
2015-1-1,34.3,23.3,13.7,15.7,12.1,9.0,83,64,40,30.39,30.18,14,3,19,0.00
2015-1-2,36.8,29.8,16.5,28.5,24.3,11.3,91,80,67,30.26,30.02,8,2,13,0.00